CW0880 Weather Reports


time (UTC)temp
F
wind
direction
speed
knots
gust
knots
rain 1hr
in
rain 24hr
in
rain mn
in
humidity
%
barometer
mb
20260504032144 54 254 2.6 5.2 0.00 0.00 0.00 63 1012.6
20260504030640 54 244 5.2 6.1 0.00 0.00 0.00 67 1012.6
20260504025136 54 257 5.2 7.0 0.00 0.00 0.00 65 1012.5
20260504023632 55 253 5.2 6.1 0.00 0.00 0.00 65 1012.4
20260504022132 55 245 3.5 6.1 0.00 0.00 0.00 63 1012.3
20260504020630 56 237 3.5 7.8 0.00 0.00 0.00 54 1012.5
20260504015131 56 236 4.3 7.0 0.00 0.00 0.00 58 1012.4
20260504013627 56 254 3.5 4.3 0.00 0.00 0.00 57 1012.3
20260504012125 57 255 2.6 5.2 0.00 0.00 0.00 45 1011.9
20260504010620 57 239 1.7 5.2 0.00 0.00 0.00 44 1011.8
20260504005115 57 237 1.7 3.5 0.00 0.00 0.00 45 1011.7
20260504003613 57 261 3.5 5.2 0.00 0.00 0.00 47 1011.5
20260504002110 58 273 3.5 6.1 0.00 0.00 0.00 46 1011.4
20260504000606 58 242 4.3 5.2 0.00 0.00 0.00 41 1011.2
20260503235104 59 258 5.2 5.2 0.00 0.00 0.00 38 1010.9
20260503233602 59 244 6.1 10.4 0.00 0.00 0.00 42 1010.7
20260503232058 61 259 2.6 10.4 0.00 0.00 0.00 29 1010.5
20260503230555 62 81 0.0 8.7 0.00 0.00 0.00 28 1010.5
20260503225050 62 321 1.7 6.1 0.00 0.00 0.00 28 1010.6
20260503223550 63 340 5.2 7.0 0.00 0.00 0.00 26 1010.4
20260503222047 62 1 3.5 12.2 0.00 0.00 0.00 26 1010.4
20260503220543 62 4 2.6 17.4 0.00 0.00 0.00 26 1010.6
20260503215040 62 324 3.5 14.8 0.00 0.00 0.00 26 1010.7
20260503213538 62 350 6.1 16.5 0.00 0.00 0.00 26 1010.5
20260503212036 62 341 7.0 12.2 0.00 0.00 0.00 27 1010.3
20260503210531 61 270 3.5 12.2 0.00 0.00 0.00 28 1010.4
20260503205026 61 15 5.2 13.0 0.00 0.00 0.00 27 1010.0
20260503203522 62 290 2.6 7.8 0.00 0.00 0.00 28 1010.3
20260503202021 60 265 7.8 10.4 0.00 0.00 0.00 28 1010.4
20260503200518 61 289 9.6 10.4 0.00 0.00 0.00 29 1010.6
20260503195014 59 342 7.0 15.6 0.00 0.00 0.00 29 1010.9
20260503193514 60 337 7.8 11.3 0.00 0.00 0.00 30 1010.9
20260503192014 60 101 2.6 13.9 0.00 0.00 0.00 30 1010.9
20260503190510 59 295 7.0 11.3 0.00 0.00 0.00 31 1011.0
20260503185009 60 12 5.2 5.2 0.00 0.00 0.00 32 1011.1
20260503183504 58 320 7.8 14.8 0.00 0.00 0.00 34 1011.5
20260503182003 58 242 3.5 9.6 0.00 0.00 0.00 34 1011.6
20260503180500 56 282 6.1 13.9 0.00 0.00 0.00 35 1011.6
20260503174956 55 343 4.3 16.5 0.00 0.00 0.00 36 1011.5
20260503173451 56 7 3.5 13.0 0.00 0.00 0.00 37 1011.5
20260503171948 55 261 2.6 11.3 0.00 0.00 0.00 37 1011.5
20260503170444 54 242 7.8 8.7 0.00 0.00 0.00 40 1011.7
20260503150420 53 326 5.2 11.3 0.00 0.00 0.00 35 1011.9
20260503130356 49 317 6.1 11.3 0.00 0.00 0.00 50 1012.3
20260503110337 46 3 7.0 13.0 0.00 0.00 0.00 53 1011.4
20260503090320 48 350 5.2 5.2 0.00 0.00 0.00 50 1010.2
20260503080311 49 312 5.2 11.3 0.00 0.00 0.00 48 1010.1
20260503071757 51 350 5.2 7.8 0.00 0.00 0.00 46 1010.0
20260503070255 51 1 2.6 7.0 0.00 0.00 0.00 45 1010.1
20260503060250 52 54 1.7 6.1 0.00 0.00 0.00 44 1010.3
20260503054749 53 17 3.5 6.1 0.00 0.00 0.00 45 1010.1
20260503053248 53 39 1.7 9.6 0.00 0.00 0.00 44 1010.4
20260503051748 53 21 3.5 8.7 0.00 0.00 0.00 41 1010.6
20260503050244 53 333 2.6 9.6 0.00 0.00 0.00 40 1010.7
20260503044741 54 337 8.7 8.7 0.00 0.00 0.00 39 1010.8
20260503043239 54 349 5.2 11.3 0.00 0.00 0.00 38 1010.8
20260503041739 54 357 6.1 11.3 0.00 0.00 0.00 37 1011.0
20260503040238 55 351 4.3 10.4 0.00 0.00 0.00 37 1010.9
20260503034735 55 332 6.1 11.3 0.00 0.00 0.00 37 1011.0
20260503033232 55 315 5.2 8.7 0.00 0.00 0.00 36 1010.7